Weather in Bereket

Turkmenistan     39°14′48″N   55°31′01″E
temp.,
°C
wind,
m/s
gust,
m/s
humid.,
%
clouds,
%
prec.,
mm/h
press.,
hPa
HPBL,
m
12 august, fri
fri1223:00+29ene58180 0.0 1011124
02:00+28e612220 0.0 1011214
05:00+26e59260 0.0 1011133
08:00+27e613240 0.0 1012614
11:00+32e1011160 0.0 10121816
14:00+35e1010120 0.0 10102253
17:00+36e89120 0.0 10092488
20:00+33ene710150 0.0 1009247
13 august, sat
sat1323:00+30ene46190 0.0 101062
02:00+28e44210 0.0 101033
05:00+26e33240 0.0 101020
08:00+27e39230 0.0 1011361
11:00+33e79150 0.0 10111238
14:00+37e78120 0.0 10092694
17:00+37ene88120 0.0 10082856
20:00+34ene69130 0.0 1008181
14 august, sun
sun1423:00+31ene44160 0.0 100830
02:00+28e33190 0.0 100714
05:00+27e33220 0.0 100813
08:00+28ene25230 0.0 1008197
11:00+34e67160 0.0 1009899
14:00+37e88130 0.0 10072874
17:00+38ene77120 0.0 10063169
20:00+35ene58130 0.0 1006109
15 august, mon
mon1523:00+32e45170 0.0 100740
02:00+30ene45200 0.0 100651
05:00+27e33220 0.0 100721
08:00+28ne24190 0.0 1009164
11:00+33ene45150 0.0 1009793
14:00+36ne44130 0.0 10082073
17:00+38ne54100 0.0 10072408
20:00+35ene33110 0.0 100722
16 august, tue
tue1623:00+32ene34140 0.0 100823
02:00+29e33180 0.0 100818
05:00+27e33250 0.0 100918
08:00+28ene37280 0.0 1011290
11:00+34e68180 0.0 1011952
14:00+38ene78130 0.0 10102739
17:00+39ene99120 0.0 10092928
20:00+36ene812110 0.0 1010238